Location: Sihaung
(22.8641°N, 94.0549°E)
Time: 10:57:44
(UTC+00:00)

Cosmos 1437 Rocket - Pass Details

Date: 03 March 2021
Orbit: 501 x 565 km, 81.2° (Epoch: 17 April)

Event Time Altitude Azimuth Distance (km) Brightness Sun altitude
Rises 22:47:04 0° 174° (S) 2,744 6.5 -18.3°
Reaches altitude 10° 22:49:18 10° 168° (SSE) 1,852 5.6 -17.7°
Maximum altitude 22:53:14 47° 94° (E) 748 3.9 -16.8°
Drops below altitude 10° 22:57:10 10° 20° (NNE) 1,850 5.7 -15.9°
Sets 22:59:23 0° 15° (NNE) 2,742 6.6 -15.4°
